User: anonymous   Login
Location: Tucson
(32.2217°N, 110.9265°W)
Time: 21:01:15
(UTC-07:00)
Language:

CAS-4A - Orbit

View from above orbital plane
View from above orbital plane
View from above satellite
View from above satellite

Ground track
Ground track

The orbit data is extracted from the following two-line orbital elements,

1 42761U 17034D   21333.93488124  .00000926  00000-0  68182-4 0  9992
2 42761  43.0194 350.0460 0007040 122.2613 309.9907 15.10660307246175
Epoch (UTC): 29 November 2021 22:26:13
Eccentricity: 0.0007040
inclination: 43.0194°
perigee height: 529 km
apogee height: 539 km
right ascension of ascending node: 350.0460°
argument of perigee: 122.2613°
revolutions per day: 15.10660307
mean anomaly at epoch: 309.9907°
orbit number at epoch: 24617

The dashed part of the orbit path shows where the satellite is in the earth's shadow,  

DLR